HVN836 VVTS-VVDL

Flight info

Callsign HVN836
Flight time 0h 21m
Altitude 15000
Route SAKOD SAKOD1G
Aircraft A321/M-SDE3FGHIRWY/LB1

Departure

Time 2026-04-18 04:34
Airport Tan Son Nhat International Airport (VVTS)

Arrival

Time 2026-04-18 04:56
Airport Lien Khuong Airport (VVDL)
Time Latitude Longitude Altitude Speed Heading
2026-04-18 04:14 10.81759 106.66373 38 ft 0 kts 159°
2026-04-18 04:26 10.81771 106.66369 38 ft 3 kts 159°
2026-04-18 04:26 10.81790 106.66361 37 ft 3 kts 159°
2026-04-18 04:27 10.81808 106.66355 37 ft 3 kts 158°
2026-04-18 04:27 10.81825 106.66345 40 ft 3 kts 132°
2026-04-18 04:27 10.81835 106.66329 38 ft 3 kts 99°
2026-04-18 04:27 10.81835 106.66310 39 ft 3 kts 77°
2026-04-18 04:28 10.81830 106.66292 40 ft 1 kts 69°
2026-04-18 04:28 10.81830 106.66290 40 ft 0 kts 69°
2026-04-18 04:31 10.81830 106.66291 40 ft 1 kts 69°
2026-04-18 04:31 10.81854 106.66360 40 ft 26 kts 71°
2026-04-18 04:32 10.81910 106.66505 39 ft 22 kts 71°
2026-04-18 04:32 10.81966 106.66654 37 ft 23 kts 69°
2026-04-18 04:32 10.82023 106.66803 37 ft 22 kts 69°
2026-04-18 04:32 10.82095 106.66914 39 ft 18 kts 37°
2026-04-18 04:33 10.82189 106.66993 39 ft 17 kts 37°
2026-04-18 04:33 10.82283 106.66999 37 ft 14 kts 339°
2026-04-18 04:33 10.82340 106.66923 35 ft 14 kts 290°
2026-04-18 04:33 10.82343 106.66890 37 ft 1 kts 256°
2026-04-18 04:34 10.82276 106.66683 34 ft 72 kts 248°
2026-04-18 04:34 10.81999 106.65962 40 ft 144 kts 248°
2026-04-18 04:34 10.81565 106.64833 178 ft 188 kts 250°
2026-04-18 04:34 10.81116 106.63630 1077 ft 179 kts 248°
2026-04-18 04:35 10.80672 106.62443 1567 ft 187 kts 248°
2026-04-18 04:35 10.80185 106.61143 1702 ft 210 kts 248°
2026-04-18 04:35 10.79631 106.59700 1945 ft 225 kts 248°
2026-04-18 04:35 10.79055 106.58201 2418 ft 228 kts 248°
2026-04-18 04:36 10.78403 106.56726 2977 ft 230 kts 234°
2026-04-18 04:36 10.77173 106.55726 3523 ft 229 kts 199°
2026-04-18 04:36 10.75618 106.55528 4086 ft 226 kts 169°
2026-04-18 04:36 10.74194 106.56146 4642 ft 223 kts 144°
2026-04-18 04:37 10.72895 106.57025 5108 ft 228 kts 144°
2026-04-18 04:37 10.71564 106.57919 5592 ft 230 kts 144°
2026-04-18 04:37 10.70228 106.58822 6136 ft 230 kts 143°
2026-04-18 04:37 10.68896 106.59731 6647 ft 231 kts 143°
2026-04-18 04:38 10.67585 106.60733 6829 ft 245 kts 128°
2026-04-18 04:38 10.66903 106.62345 6867 ft 261 kts 91°
2026-04-18 04:38 10.67250 106.64145 7179 ft 270 kts 63°
2026-04-18 04:38 10.68290 106.65745 7743 ft 273 kts 56°
2026-04-18 04:39 10.69575 106.67696 8426 ft 277 kts 56°
2026-04-18 04:39 10.71717 106.70996 9590 ft 282 kts 56°
2026-04-18 04:39 10.73936 106.74420 10210 ft 306 kts 56°
2026-04-18 04:39 10.76412 106.78227 10455 ft 338 kts 56°
2026-04-18 04:40 10.79102 106.82357 10969 ft 357 kts 56°
2026-04-18 04:40 10.81867 106.86610 11817 ft 364 kts 57°
2026-04-18 04:40 10.84683 106.90948 12715 ft 370 kts 57°
2026-04-18 04:40 10.87559 106.95372 13576 ft 378 kts 58°
2026-04-18 04:41 10.90482 106.99866 14295 ft 384 kts 57°
2026-04-18 04:41 10.93443 107.04423 14870 ft 389 kts 57°
2026-04-18 04:41 10.96506 107.09139 14890 ft 404 kts 57°
2026-04-18 04:41 10.99580 107.13862 14897 ft 405 kts 57°
2026-04-18 04:42 11.02698 107.18659 14903 ft 405 kts 57°
2026-04-18 04:42 11.05801 107.23460 14906 ft 405 kts 57°
2026-04-18 04:42 11.11518 107.32295 14915 ft 405 kts 57°
2026-04-18 04:42 11.17739 107.41894 14914 ft 406 kts 57°
2026-04-18 04:43 11.23934 107.51463 14827 ft 408 kts 57°
2026-04-18 04:43 11.29338 107.59825 14764 ft 408 kts 57°
2026-04-18 04:43 11.30892 107.62224 14888 ft 405 kts 57°
2026-04-18 04:43 11.32442 107.64619 14923 ft 405 kts 57°
2026-04-18 04:44 11.33989 107.67016 14921 ft 405 kts 57°
2026-04-18 04:44 11.35534 107.69413 14932 ft 405 kts 57°
2026-04-18 04:44 11.37078 107.71812 14931 ft 405 kts 57°
2026-04-18 04:44 11.38607 107.74187 14931 ft 405 kts 57°
2026-04-18 04:45 11.40148 107.76582 14935 ft 404 kts 57°
2026-04-18 04:45 11.41688 107.78978 14937 ft 404 kts 57°
2026-04-18 04:45 11.43193 107.81315 14860 ft 382 kts 57°
2026-04-18 04:45 11.44628 107.83538 14265 ft 369 kts 57°
2026-04-18 04:46 11.46026 107.85700 13509 ft 362 kts 57°
2026-04-18 04:46 11.47408 107.87837 12889 ft 359 kts 57°
2026-04-18 04:46 11.48771 107.89949 12404 ft 354 kts 57°
2026-04-18 04:46 11.50110 107.92026 11932 ft 348 kts 57°
2026-04-18 04:47 11.51430 107.94078 11460 ft 343 kts 57°
2026-04-18 04:47 11.52728 107.96098 11093 ft 335 kts 57°
2026-04-18 04:47 11.53962 107.98016 10976 ft 320 kts 57°
2026-04-18 04:47 11.55149 107.99861 10833 ft 300 kts 57°
2026-04-18 04:48 11.56271 108.01604 10463 ft 289 kts 57°
2026-04-18 04:48 11.57363 108.03302 10298 ft 287 kts 56°
2026-04-18 04:48 11.58460 108.05008 10165 ft 288 kts 56°
2026-04-18 04:48 11.59557 108.06712 10045 ft 287 kts 56°
2026-04-18 04:49 11.60652 108.08413 9925 ft 286 kts 56°
2026-04-18 04:49 11.61727 108.10087 9618 ft 281 kts 56°
2026-04-18 04:49 11.62819 108.11784 8847 ft 289 kts 56°
2026-04-18 04:49 11.63895 108.13456 8419 ft 276 kts 56°
2026-04-18 04:50 11.65047 108.14910 8265 ft 255 kts 41°
2026-04-18 04:50 11.66478 108.15871 8171 ft 239 kts 25°
2026-04-18 04:50 11.68065 108.16356 7721 ft 240 kts
2026-04-18 04:50 11.69735 108.16357 7165 ft 240 kts 358°
2026-04-18 04:51 11.71343 108.16562 6835 ft 224 kts 20°
2026-04-18 04:51 11.72646 108.17251 6732 ft 202 kts 36°
2026-04-18 04:51 11.73627 108.18239 6377 ft 196 kts 53°
2026-04-18 04:51 11.74258 108.19467 5925 ft 197 kts 70°
2026-04-18 04:52 11.74481 108.20815 5583 ft 188 kts 86°
2026-04-18 04:52 11.74567 108.22106 5296 ft 177 kts 87°
2026-04-18 04:52 11.74613 108.23321 5055 ft 166 kts 85°
2026-04-18 04:52 11.74678 108.24476 4829 ft 160 kts 85°
2026-04-18 04:53 11.74733 108.25595 4632 ft 159 kts 85°
2026-04-18 04:53 11.74798 108.26721 4440 ft 158 kts 86°
2026-04-18 04:53 11.74856 108.27845 4248 ft 159 kts 85°
2026-04-18 04:53 11.74918 108.28968 3995 ft 157 kts 86°
2026-04-18 04:54 11.74980 108.30080 3788 ft 157 kts 86°
2026-04-18 04:54 11.75038 108.31196 3622 ft 158 kts 86°
2026-04-18 04:54 11.75097 108.32315 3476 ft 159 kts 86°
2026-04-18 04:54 11.75154 108.33444 3267 ft 160 kts 86°
2026-04-18 04:55 11.75216 108.34569 3111 ft 157 kts 87°
2026-04-18 04:55 11.75264 108.35643 3061 ft 136 kts 88°
2026-04-18 04:55 11.75317 108.36473 3062 ft 102 kts 86°
2026-04-18 04:56 11.75367 108.37258 3060 ft 30 kts 89°
2026-04-18 04:56 11.75370 108.37464 3061 ft 29 kts 89°
2026-04-18 04:56 11.75358 108.37643 3056 ft 17 kts 127°
2026-04-18 04:56 11.75280 108.37654 3060 ft 11 kts 179°
2026-04-18 04:57 11.75220 108.37628 3059 ft 10 kts 244°
2026-04-18 04:57 11.75213 108.37556 3060 ft 11 kts 267°
2026-04-18 04:57 11.75209 108.37469 3062 ft 16 kts 268°
2026-04-18 04:57 11.75200 108.37334 3061 ft 20 kts 265°
2026-04-18 04:58 11.75195 108.37191 3062 ft 20 kts 268°
2026-04-18 04:58 11.75186 108.37044 3060 ft 21 kts 264°
2026-04-18 04:58 11.75176 108.36899 3062 ft 19 kts 272°
2026-04-18 04:58 11.75153 108.36820 3060 ft 11 kts 216°
2026-04-18 04:59 11.75075 108.36820 3061 ft 12 kts 153°
2026-04-18 04:59 11.75001 108.36834 3060 ft 8 kts 175°
2026-04-18 04:59 11.74998 108.36834 3059 ft 0 kts 175°